CW3742 Weather Reports


Display with metric or nautical units.
time (UTC)temp
F
wind
direction
speed
MPH
gust
MPH
rain 1hr
in
rain 24hr
in
rain mn
in
humidity
%
barometer
mb
20260504030017 61 0 9.0 12.0 0.00 0.00 0.00 54 1006.6
20260504023016 62 0 9.0 13.0 0.00 0.00 0.00 53 1006.5
20260504020016 64 0 10.0 13.0 0.00 0.00 0.00 51 1006.4
20260504013016 65 0 9.0 12.0 0.00 0.00 0.00 49 1006.3
20260504010017 66 0 10.0 15.0 0.00 0.00 0.00 47 1006.3
20260504003037 69 0 11.0 16.0 0.00 0.00 0.00 43 1006.4
20260504000016 70 0 11.0 15.0 0.00 0.00 0.00 42 1006.3
20260503233017 71 0 14.0 21.0 0.00 0.00 0.00 40 1006.3
20260503230017 72 0 16.0 25.0 0.00 0.00 0.00 38 1006.4
20260503223017 72 0 18.0 26.0 0.00 0.00 0.00 38 1006.5
20260503220037 72 0 17.0 28.0 0.00 0.00 0.00 40 1006.5
20260503213016 72 0 18.0 27.0 0.00 0.00 0.00 41 1006.8
20260503210017 72 0 18.0 30.0 0.00 0.00 0.00 41 1007.0
20260503203017 69 0 19.0 28.0 0.00 0.00 0.00 47 1007.4
20260503200017 69 0 21.0 30.0 0.00 0.00 0.00 49 1007.8
20260503193017 68 0 19.0 32.0 0.00 0.00 0.00 46 1008.1
20260503190017 66 0 24.0 33.0 0.00 0.00 0.00 47 1008.0
20260503183017 68 0 24.0 33.0 0.00 0.00 0.00 46 1007.9
20260503180016 66 0 24.0 33.0 0.00 0.00 0.00 47 1008.4
20260503173017 66 0 23.0 36.0 0.00 0.00 0.00 46 1008.8
20260503053037 48 0 5.0 9.0 0.00 0.00 0.00 59 1015.2
20260503050017 49 0 6.0 8.0 0.00 0.00 0.00 57 1015.4
20260503043017 49 0 5.0 7.0 0.00 0.00 0.00 56 1015.5
20260503040037 50 0 5.0 7.0 0.00 0.00 0.00 54 1015.8
20260503033017 51 0 4.0 6.0 0.00 0.00 0.00 51 1016.0